Chicago Midway International Airport (MDW)


Airport Diagram
Current Weather/Forecast (VFR Conditions)
METAR KMDW 290253Z 01004KT 10SM SCT016 SCT085 BKN110 20/17 A2987 RMK AO2 RAE02 SLP106 P0000 60004 T02000172 53018
TAF KMDW 290304Z 2903/3006 36006KT P6SM SCT015 OVC040 TEMPO 2903/2906 -SHRA BKN015 FM290600 32008KT 6SM -SHRA SCT015 OVC040 FM290900 30007KT P6SM SCT050 FM291600 33012G20KT P6SM BKN050 FM300000 32008KT P6SM SCT050

All Charts
General
Chart Name Download
AIRPORT DIAGRAM
TAKEOFF MINIMUMS
ALTERNATE MINIMUMS
HOT SPOT

Departures
Chart Name Download
CICERO TWO
MIDWAY FIVE

Arrivals
Chart Name Download
ENDEE FOUR (RNAV)
ENDEE FOUR (RNAV), CONT.1
FISSK FOUR (RNAV)
GOSHEN SEVEN
MOTIF SIX
MOTIF SIX, CONT.1
PANGG THREE (RNAV)

Approaches
Chart Name Download
ILS OR LOC RWY 13C
ILS OR LOC/DME RWY 04R
ILS OR LOC/DME RWY 31C
RNAV (RNP) X RWY 22L
RNAV (RNP) Y RWY 04R
RNAV (RNP) Y RWY 13C
RNAV (RNP) Y RWY 22L
RNAV (RNP) Y RWY 31C
RNAV (GPS) RWY 04L
RNAV (GPS) RWY 13L
RNAV (GPS) RWY 22R
RNAV (GPS) RWY 31R
RNAV (GPS) Z RWY 04R
RNAV (GPS) Z RWY 13C
RNAV (GPS) Z RWY 22L
RNAV (GPS) Z RWY 31C